Regional Weather Roundup
Issued by NWS

Home | Current Version | Previous Version | Graphics & Text | Print | Product List | Glossary On
Versions: 1 2 3 4 5 6 7 8 9 10 11 12 13 14 15 16 17 18 19 20 21 22 23 24 25 26 27 28 29 30 31 32 33 34 35 36 37 38 39 40 41 42 43 44 45 46 47 48 49 50
000
ASUS43 KIND 231259
RWRIN

WEATHER ROUNDUP FOR INDIANA
NATIONAL WEATHER SERVICE INDIANAPOLIS IN
900 AM EDT SAT MAY 23 2015

NOTE: "FAIR" INDICATES FEW OR NO CLOUDS BELOW 12,000 FEET WITH NO
SIGNIFICANT WEATHER AND/OR OBSTRUCTIONS TO VISIBILITY.

* - STATION DOES NOT REPORT WEATHER SUCH AS PRECIPITATION OR FOG.

+ - STATION NOT QUALITY CONTROLLED BY THE NATIONAL WEATHER SERVICE.
    USE DATA WITH CAUTION...ESPECIALLY DEWPOINT AND RELATIVE
    HUMIDITY OBSERVATIONS.

INZ001>003-010>013-019-020-231400-
NORTHWEST INDIANA

CITY           SKY/WX    TMP DP  RH WIND       PRES   REMARKS
RENSSELAER +   SUNNY     61  36  39 SE8       30.36S

$$

LMZ046-743>745-231400-
SOUTHERN LAKE MICHIGAN

STATION/POSITION TIME  TEMP    WIND        PRES    WAVE
                       AIR SEA DIR/SP/G            HT
                 (UTC) (F)     (DEG/KT/KT) (MB)    (FT)
BURNS HARBOR     1200   59     150/  8/ 16 1028.1R
MICHIGAN CITY    1200   57     120/ 10/ 12   N/A
5NW MICH CITY    1200   56 51  170/  8/ 12   N/A     1

$$

INZ004-005-014>016-021>024-231400-
NORTH CENTRAL INDIANA

CITY           SKY/WX    TMP DP  RH WIND       PRES   REMARKS
ELKHART        SUNNY     55  37  50 SE5       30.38S
GOSHEN         SUNNY     57  42  57 SE6       30.38R
SOUTH BEND     SUNNY     59  35  40 S7        30.38S

$$

INZ006>009-017-018-025>027-231400-
NORTHEAST INDIANA

CITY           SKY/WX    TMP DP  RH WIND       PRES   REMARKS
ANGOLA *+        N/A     54  43  66 VRB3      30.38S
FORT WAYNE     PTSUNNY   56  42  59 E3        30.39R

$$

INZ028-029-035-036-043>045-051>053-231400-
WEST CENTRAL INDIANA

CITY           SKY/WX    TMP DP  RH WIND       PRES   REMARKS
CRAWFORDSVL +  MOSUNNY   62  38  41 SE7       30.36S
GREENCASTLE +  CLOUDY    61  45  55 E5        30.37R
LAFAYETTE      SUNNY     60  41  49 SE6       30.36R
TERRE HAUTE    MOSUNNY   63  54  72 SE6       30.36R

$$

INZ030>032-037>040-046>048-054>057-064-065-231400-
CENTRAL INDIANA

CITY           SKY/WX    TMP DP  RH WIND       PRES   REMARKS
ANDERSON       SUNNY     63  37  39 CALM      30.39
COLUMBUS       PTSUNNY   59  50  72 CALM      30.38R
GREENWOOD *+   CLOUDY    61  45  55 SE3       30.38R
INDIANAPOLIS   PTSUNNY   61  45  55 SE6       30.35R
-EAGLE CREEK   PTSUNNY   62  44  51 SE3       30.37R
KOKOMO *+      MOSUNNY   57  39  51 SE7       30.38R
MT COMFORT *+  CLOUDY    63  32  31 SE8       30.38R
SHELBYVILLE    CLOUDY    63  47  55 SE3       30.37R

$$

INZ033-034-041-042-049-050-058-059-231400-
EAST CENTRAL INDIANA

CITY           SKY/WX    TMP DP  RH WIND       PRES   REMARKS
MUNCIE         PTSUNNY   61  42  49 SE6       30.38R

$$

INZ060-061-067>069-081>083-085>088-231400-
SOUTHWEST INDIANA

CITY           SKY/WX    TMP DP  RH WIND       PRES   REMARKS
EVANSVILLE     CLOUDY    63  57  81 N3        30.37R
HUNTINGBURG *+ CLOUDY    61  54  77 CALM      30.38R

$$

INZ062-063-066-070>080-084-089>092-231400-
SOUTH CENTRAL AND SOUTHEAST INDIANA

CITY           SKY/WX    TMP DP  RH WIND       PRES   REMARKS
BLOOMINGTON    CLOUDY    61  55  81 SE3       30.36R
MADISON *+     CLOUDY    61  52  72 CALM      30.40R
SEYMOUR +      CLOUDY    61  52  72 NE3       30.37R

$$



USA.gov is the U.S. government's official web portal to all federal, state and local government web resources and services.